• Processing (Info)

  • MPEC 2014-F51 : 2014 FG33

    The following Minor Planet Electronic Circular may be linked-to from your own Web pages, but must not otherwise be redistributed electronically.

    A form allowing access to any MPEC is at the bottom of this page.


    Read MPEC 2014-F50 Read MPEC 2014-F52


    M.P.E.C. 2014-F51                                Issued 2014 Mar. 28, 11:24 UT
    
         The Minor Planet Electronic Circulars contain information on unusual
             minor planets and routine data on comets.  They are published
       on behalf of Commission 20 of the International Astronomical Union by the
              Minor Planet Center, Smithsonian Astrophysical Observatory,
                              Cambridge, MA 02138, U.S.A.
    
                 Prepared using the Tamkin Foundation Computer Network
    
                                  MPC@CFA.HARVARD.EDU
                URL https://www.minorplanetcenter.net/    ISSN 1523-6714
    
                                       2014 FG33
    
    Observations:
         K14F33G* C2014 03 24.35707712 01 48.471+03 07 02.51         21.6 RtEF051F51
         K14F33G  C2014 03 24.36919412 01 44.030+03 05 39.82         21.0 RtEF051F51
         K14F33G  C2014 03 24.38131012 01 39.458+03 04 17.35         21.8 RtEF051F51
         K14F33G  C2014 03 24.39346912 01 34.975+03 02 54.53         21.2 RtEF051F51
         K14F33G KC2014 03 26.25004811 51 15.37 -00 18 56.9          21.8 VuEF051H21
         K14F33G KC2014 03 26.26576511 51 10.15 -00 20 34.5          22.0 VuEF051H21
         K14F33G KC2014 03 26.28141711 51 04.91 -00 22 12.0          22.2 VuEF051H21
         K14F33G KC2014 03 28.24608 11 41 15.12 -03 36 08.4          21.2 RoEF051291
         K14F33G KC2014 03 28.26696 11 41 08.81 -03 38 05.9          21.7 RoEF051291
    
    Observer details:
    291 LPL/Spacewatch II.  Observer R. A. Mastaler.  1.8-m f/2.7 reflector + CCD.
    F51 Pan-STARRS 1, Haleakala.  Observers N. Primak, A. Schultz, S. Watters,
        T. Goggia, K. Chambers.  Measurer T. Vorobjov.  1.8-m f/4.4
        Ritchey-Chretien + CCD.
    H21 Astronomical Research Observatory, Westfield.  Observer R. Holmes.
        Measurers S. Foglia, L. Buzzi, T. Linder, T. Lister, T. Vorobjov.  0.81-m
        f/4.0 astrograph + CCD.
    
    Orbital elements:
    2014 FG33                                                Earth MOID = 0.1359 AU
    Epoch 2014 May 23.0 TT = JDT 2456800.5                  MPC
    M  87.33213              (2000.0)            P               Q
    n   0.65848372     Peri.  105.59049     -0.32922440     -0.94392937
    a   1.3084969      Node     3.90201     +0.66601450     -0.25065529
    e   0.2443037      Incl.   21.25593     +0.66935490     -0.21487035
    P   1.50           H   25.1           G   0.15           U   9
    Residuals in seconds of arc
    140324 F51  0.1+  0.6+    140324 F51  0.3-  0.5-    140326 H21  0.4+  0.0
    140324 F51  0.7+  0.1+    140326 H21  0.2-  0.4-    140328 291  0.3-  0.1+
    140324 F51  0.6-  0.2-    140326 H21  0.5+  0.0     140328 291  0.1+  0.0
    
    Ephemeris:
    2014 FG33                a,e,i = 1.31, 0.24, 21                  q = 0.9888
    Date    TT    R. A. (2000) Decl.     Delta      r     Elong.  Phase     V
    2014 02 26    15 25 23.4 +46 47 19   0.1832  1.0622   108.4    62.2    23.8
    ...
    2014 03 13    13 24 15.6 +26 56 01   0.1395  1.1096   144.0    31.8    22.4
    ...
    2014 03 21    12 22 53.3 +09 50 55   0.1440  1.1375   168.6     9.9    21.8
    ...
    2014 03 27    11 47 22.4 -01 34 49   0.1632  1.1593   171.3     7.5    22.0
    2014 03 28    11 42 25.3 -03 12 21   0.1675  1.1630   169.2     9.3    22.2
    2014 03 29    11 37 44.3 -04 44 44   0.1721  1.1666   167.0    11.1    22.3
    ...
    2014 04 04    11 14 55.1 -12 16 57   0.2047  1.1890   155.3    20.6    23.1
    ...
    2014 04 12    10 56 16.2 -18 45 21   0.2577  1.2192   143.5    29.2    23.9
    ...
    2014 04 27    10 45 11.3 -24 58 18   0.3737  1.2758   129.2    37.7    25.0
    
    A. U. Tomatic                (C) Copyright 2014 MPC           M.P.E.C. 2014-F51
    

    Read MPEC 2014-F50 Read MPEC 2014-F52


    MPEC number:

    Enter an MPEC number in one of the following forms:

    • 1997-B01 (the full form)
    • J97B01 (the packed version of the full form)
    • B01 (the abbreviated form)